Location: Newark
(10.3333°N, 37.7167°E)
Time: 03:27:32
(UTC+00:00)

STARLINK-1089 - Pass Details

Date: 04 February 2020
Orbit: 348 x 351 km, 53.0° (Epoch: 17 February)

Event Time Altitude Azimuth Distance (km) Brightness Sun altitude
Rises 17:16:58 0° 312° (NW) 2,154 7.1 -25.2°
Reaches altitude 10° 17:19:06 10° 301° (WNW) 1,312 6.1 -25.8°
Enters shadow 17:19:40 14° 296° (WNW) 1,101 5.7 -25.9°
